Tracking 19245 objects as of 21-Aug-2018
HD Live streaming from Space Station
objects crossing your sky now

FLOCK 1C 5

Track FLOCK 1C 5 now!
10-day predictions
FLOCK 1C 5 is classified as:


NORAD ID: 40038
Int'l Code: 2014-033AE
Perigee: 597.0 km
Apogee: 615.8 km
Inclination: 97.9 °
Period: 96.7 minutes
Semi major axis: 6977 km
RCS: Unknown
Launch date: June 19, 2014
Source: United States (US)
Launch site: Orenburg, Russia (OREN)
aabbcc
Your satellite tracking list
Your tracking list is empty




NASA's NSSDC Master Catalog

Two Line Element Set (TLE):
1 40038U 14033AE  18232.54053731 +.00000489 +00000-0 +57188-4 0  9994
2 40038 097.9193 150.6851 0013498 327.5687 032.4699 14.89572983225923
Source of the keplerian elements: AFSPC